#timestamp,LO_Frequency,Hit,StdDev 
1610629215.9,286046996.4,N
1610629235.7,286046997.8,N
1610629255.5,286046996.6,N
1610629275.4,286046999.2,N
1610629295.2,286046999.2,N
1610629315.1,286047000.5,N
1610629316.0,286047000.5,N
1610629335.8,286046998.7,N
1610629355.6,286046998.8,N
1610629375.5,286046995.2,N
1610629395.3,286046997.5,N
1610629415.2,286046993.5,Y
1610629435.9,286046999.5,P
1610629455.7,286046995.4,P
1610629475.6,286046997.8,N
1610629495.4,286046997.9,N
1610629515.2,286046993.3,Y
1610629535.1,286047000.4,P
1610629536.0,286047000.4,N
1610629555.8,286046999.4,N
1610629575.7,286047001.2,N
1610629595.5,286046998.7,N
1610629615.3,286046999.2,N
1610629635.2,286046997.7,N
1610629655.0,286046997.6,N
1610629655.9,286046997.6,N
1610629675.8,286046995.6,Y
1610629695.6,286046994.5,P
1610629715.4,286046994.1,N
1610629735.3,286046993.3,P
1610629755.1,286046997.4,N
1610629775.8,286046997.5,N
1610629795.7,286046996.9,N
1610629815.5,286046995.2,N
1610629835.4,286047000.5,N
1610629855.2,286046999.9,N
1610629875.0,286046998.1,N
1610629875.9,286046998.1,N
1610629895.8,286046996.5,N
1610629915.6,286046997.4,N
1610629935.5,286046996.3,N
1610629955.3,286046992.4,Y
1610629975.1,286046996.3,P
1610629995.9,286046993.7,P
1610630015.7,286046998.0,N
1610630035.5,286046996.2,N
1610630055.4,286046997.2,N
1610630075.2,286046997.0,N
1610630095.1,286047002.0,N
1610630096.0,286047002.0,N
1610630115.8,286047002.0,N
1610630135.6,286047007.1,N
1610630155.5,286047005.2,N
1610630175.3,286047002.2,N
1610630195.2,286047000.3,N
1610630215.9,286046998.8,N
1610630235.7,286046998.7,N
1610630255.6,286046999.4,N
1610630275.4,286046999.3,N
1610630295.2,286047011.9,Y
1610630315.1,286047002.1,P
1610630316.0,286047002.1,N
1610630335.8,286047003.2,N
1610630355.7,286047005.3,Y
1610630375.5,286047001.3,P
1610630395.3,286047002.6,P
1610630415.2,286047005.3,P
1610630435.0,286047005.8,Y
1610630435.9,286047005.8,P
1610630455.8,286047000.0,N
1610630475.6,286046998.2,N
1610630495.4,286046996.8,N
1610630515.3,286046996.1,N
1610630535.1,286046997.5,N
1610630555.9,286046996.2,N
1610630575.7,286046994.9,N
1610630595.5,286046998.9,N
1610630615.4,286046999.4,N
1610630635.2,286046997.9,N
1610630655.0,286046993.9,N
1610630655.9,286046993.9,N
1610630675.8,286046993.8,N
1610630695.6,286046992.5,N
1610630715.5,286046994.3,N
1610630735.3,286046992.1,N
1610630755.1,286046993.2,N
1610630775.9,286046991.8,N
1610630795.7,286046996.9,N
1610630815.6,286046997.1,N
1610630835.4,286046996.5,N
1610630855.2,286046997.9,N
1610630875.1,286046998.8,N
1610630876.0,286046998.8,N
1610630895.8,286047003.8,N
1610630915.6,286047001.8,N
1610630935.5,286047003.8,N
1610630955.3,286047002.5,N
1610630975.2,286047004.4,N
1610630995.9,286047002.0,N
1610631015.7,286047001.2,N
1610631035.6,286046995.6,N
1610631055.4,286046994.8,N
1610631075.3,286046991.4,N
1610631095.1,286046988.9,N
1610631096.0,286046988.9,N
1610631115.8,286046989.1,N
1610631135.7,286046988.9,N
1610631155.5,286046988.5,N
1610631175.3,286046991.3,N
1610631195.2,286046992.2,N
1610631215.0,286046995.3,N
1610631215.9,286046995.3,N
1610631235.8,286046998.8,N
1610631255.6,286046998.5,N
1610631275.4,286047001.9,N
1610631295.3,286046998.7,N
1610631315.1,286047001.2,N
1610631335.9,286047002.2,N
1610631355.7,286047003.1,N
1610631375.5,286046999.7,N
1610631395.4,286046999.9,N
1610631415.2,286047004.9,N
1610631435.0,286047001.6,N
1610631436.0,286047001.6,N
1610631455.8,286047004.4,N
1610631475.6,286047002.2,N
1610631495.5,286047003.3,N
1610631515.3,286047003.7,N
1610631535.1,286047002.1,N
1610631555.9,286047002.7,N
1610631575.7,286046998.2,N
1610631595.6,286046996.9,N
1610631615.4,286046997.2,N
1610631635.2,286046998.4,N
1610631655.1,286046998.5,N
1610631656.0,286046998.5,N
1610631675.8,286046998.6,N
1610631695.7,286046999.3,N
1610631715.5,286047001.1,N
1610631735.3,286046999.5,N
1610631755.2,286046995.3,N
1610631775.9,286046994.8,N
1610631795.7,286046993.8,N
1610631815.6,286046993.3,N
1610631835.4,286046995.1,N
1610631855.3,286046998.8,N
1610631875.1,286046996.6,N
1610631876.0,286046996.6,N
1610631895.8,286046998.0,N
1610631915.7,286046993.9,N
1610631935.5,286046994.7,N
1610631955.4,286046992.8,N
1610631975.2,286046992.7,N
1610631995.0,286046993.2,N
1610631995.9,286046993.2,N
1610632015.8,286046992.9,N
1610632035.6,286046993.2,N
1610632055.4,286046991.6,N
1610632075.3,286046989.6,Y
1610632095.1,286046992.2,P
1610632115.9,286046999.0,N
1610632135.7,286046997.6,N
1610632155.5,286046993.7,N
1610632175.4,286046995.1,N
1610632195.2,286046998.0,N
1610632215.1,286046995.7,N
1610632216.0,286046995.7,N
1610632235.8,286046999.0,N
1610632255.6,286046997.6,N
1610632275.5,286046993.5,Y
1610632295.3,286046997.9,P
1610632315.1,286046997.5,P
1610632335.9,286046999.1,N
1610632355.7,286046999.6,N
1610632375.6,286046998.8,N
1610632395.4,286047004.1,Y
1610632415.2,286047001.9,P
1610632435.1,286046999.9,N
1610632436.0,286046999.9,N
1610632455.8,286046998.4,N
1610632475.7,286046999.1,N
1610632495.5,286047003.8,Y
1610632515.3,286047004.8,P
1610632535.2,286047004.4,N
1610632555.0,286047004.4,N
1610632555.9,286047004.4,N
1610632575.8,286047003.9,N
1610632595.6,286047005.6,Y
1610632615.4,286046998.6,P
1610632635.3,286046997.2,N
1610632655.1,286046998.0,N
1610632675.9,286046997.5,N
1610632695.7,286046995.9,N
1610632715.5,286046995.9,N
1610632735.4,286046996.4,N
1610632755.2,286046997.1,N
1610632775.0,286046998.0,N
1610632775.9,286046998.0,N
1610632795.8,286047000.7,N
